Вернуться в каталог

SL-8 DEB

LostLEO
NORAD 39699·DEBRIS·🇷🇺 Russia

Запущен Feb 12, 1991 с Plesetsk Cosmodrome

Loading…

Ближайшие Пролёты (ближайшие 24 часа)

TLE

УстаревшееSource: Space-Track

Эпоха: Jun 11, 2024, 07:42 UTC

1 39699U 91009DN  24163.32139486 -.00000105  00000-0 -87071-3 0  9991
2 39699  74.0951 192.6862 0144016 311.3769  47.4953 12.17136854940669

Отслеживайте SL-8 DEB в реальном времени с AllMySat

Download on the App Store